Lapse_Rate
6.1 6.2 6.3 6.3 6.2 6.2 6.2 6.2 6.1 5.9 5.8 5.8 5.9 6.0 5.9 6.1 6.1 6.1 6.0 6.0 5.9 6.0 6.0 5.9 5.8 5.8 5.7 5.6 5.7 5.7 5.7 5.7 5.8
6.0 6.1 6.2 6.3 6.2 6.2 6.2 6.1 5.9 5.8 5.8 5.8 5.8 5.9 6.1 6.1 6.1 6.0 6.0 6.0 6.0 6.1 6.1 6.1 6.0 5.9 5.9 5.9 5.9 5.9 6.0 5.9 5.9
6.1 6.0 6.1 6.2 6.2 6.2 6.0 6.0 5.9 5.8 5.8 5.8 5.8 5.8 6.0 5.9 5.9 6.0 6.1 6.1 6.1 6.1 6.2 6.1 6.1 6.0 6.0 6.0 6.1 6.2 6.1 6.1 6.1
5.9 6.0 6.0 6.1 6.1 6.1 6.1 6.0 5.9 5.8 5.8 5.8 5.8 5.9 5.9 6.0 6.1 6.2 6.2 6.2 6.2 6.3 6.3 6.2 6.2 6.2 6.2 6.2 6.3 6.2 6.2 6.3 6.2
6.0 5.8 5.9 6.0 6.0 6.1 6.0 6.0 5.8 5.8 5.7 5.8 6.0 6.0 6.0 6.0 6.1 6.2 6.2 6.3 6.3 6.4 6.4 6.4 6.5 6.5 6.4 6.5 6.3 6.3 6.3 6.3 6.4
6.1 6.0 5.9 5.9 5.9 5.9 5.9 5.9 5.9 5.9 5.7 5.8 5.9 5.9 5.9 6.1 6.1 6.3 6.3 6.3 6.3 6.4 6.4 6.5 6.7 6.6 6.7 6.7 6.7 6.6 6.7 6.5 6.5
5.9 5.9 5.9 5.9 5.9 6.0 6.0 6.0 5.9 5.9 5.9 6.0 5.9 6.0 6.0 6.1 6.2 6.4 6.4 6.4 6.4 6.5 6.6 6.6 6.5 6.6 6.7 6.7 6.7 6.7 6.8 6.7 6.7
6.0 6.1 5.9 5.8 5.8 5.9 6.0 6.0 6.0 5.9 6.0 6.0 6.1 6.3 6.3 6.2 6.3 6.5 6.6 6.6 6.6 6.6 6.6 6.5 6.6 6.6 6.7 6.7 6.8 6.8 6.7 6.8 6.6
6.1 6.1 6.1 5.9 5.5 5.6 5.9 6.0 6.0 5.9 6.0 6.2 6.3 6.3 6.4 6.4 6.4 6.5 6.6 6.6 6.7 6.8 6.6 6.5 6.5 6.6 6.6 6.6 6.5 6.6 6.5 6.7 6.9
6.0 5.9 5.8 6.0 5.9 5.4 5.7 5.9 6.0 6.0 6.1 6.5 6.3 6.5 6.6 6.5 6.5 6.6 6.6 6.7 6.7 6.7 6.6 6.7 6.6 6.6 6.6 6.5 6.4 6.5 6.6 6.6 6.8
6.1 6.0 5.9 5.8 6.0 5.9 5.5 5.7 5.8 5.9 6.1 6.5 6.4 6.5 6.5 6.5 6.5 6.7 6.7 6.7 6.8 6.7 6.7 6.7 6.7 6.8 6.7 6.6 6.6 6.6 6.6 6.7 6.9
6.0 6.1 5.8 5.9 6.0 5.9 5.8 5.5 5.7 5.9 6.1 6.3 6.4 6.4 6.5 6.5 6.5 6.6 6.7 6.8 7.0 6.8 6.7 6.6 6.7 6.8 6.8 6.7 6.7 6.6 6.7 6.7 6.7
6.3 6.1 6.2 5.6 5.9 5.7 5.8 5.8 5.5 6.1 6.0 6.3 6.4 6.6 6.5 6.5 6.4 6.6 6.7 6.7 6.8 6.8 6.6 6.6 6.6 6.6 6.7 6.8 6.7 6.8 6.8 6.8 6.8
6.6 6.4 6.2 6.2 5.8 5.7 5.8 5.8 5.8 5.8 6.0 6.0 6.1 6.4 6.4 6.4 6.3 6.5 6.6 6.6 6.6 6.7 6.7 6.8 6.6 6.6 6.6 6.6 6.7 6.8 6.8 6.9 6.9
6.8 6.7 6.6 6.4 6.5 5.9 5.9 6.0 5.9 6.0 6.2 6.1 6.1 6.2 6.2 6.4 6.2 6.5 6.7 6.7 6.6 6.8 6.9 6.7 6.9 6.9 6.7 6.6 6.6 6.7 6.8 6.9 6.8
7.0 6.7 6.6 6.5 6.6 6.7 6.2 5.9 6.1 6.0 6.2 6.2 6.1 6.1 6.2 6.0 6.1 6.3 6.2 6.2 6.2 6.5 6.7 6.7 6.8 6.9 6.8 6.6 6.6 6.6 6.9 6.7 6.8
7.1 6.8 6.7 6.6 6.8 6.8 6.6 6.5 6.2 6.2 6.1 6.1 6.1 6.1 6.0 6.2 6.1 6.1 6.2 6.2 6.4 6.4 6.5 6.5 6.6 6.6 6.5 6.7 6.7 6.7 6.6 6.5 6.6
7.1 6.8 6.9 6.6 6.8 6.8 6.9 6.8 6.6 6.3 6.0 6.1 6.1 6.4 6.4 6.1 6.1 6.0 6.2 6.5 6.4 6.3 6.4 6.5 6.6 6.3 6.5 6.7 6.8 6.5 6.5 6.4 6.2
6.9 6.9 6.8 6.6 6.6 6.8 7.0 6.8 6.6 6.2 6.2 6.0 6.2 6.1 6.1 5.9 6.0 6.2 6.3 6.2 6.3 6.2 6.3 6.3 6.6 6.7 6.7 6.5 6.5 6.3 6.3 6.3 6.1
6.8 7.2 6.7 6.6 6.6 6.7 6.7 6.7 6.8 6.5 6.4 6.3 6.3 6.4 6.4 6.5 6.6 6.3 6.2 6.0 6.1 6.0 6.3 6.5 6.5 6.7 6.3 6.5 6.3 6.2 5.9 5.9 5.8
Wind_Speed
11 12 10 13 13 14 17 19 18 15 13 11 8 4 6 8 21 19 19 12 14 16 15 16 17 21 22 23 23 24 23 23 22
12 11 11 15 14 13 16 21 18 14 12 9 5 2 6 4 17 19 15 14 15 16 17 18 17 19 18 20 21 20 21 22 25
13 12 13 13 15 15 18 18 16 14 11 7 3 3 7 23 20 17 13 16 15 17 17 20 19 17 18 18 20 22 24 26 25
12 13 14 13 14 16 16 17 15 13 11 6 3 4 9 19 17 15 15 13 13 16 20 19 20 20 20 20 25 25 25 24 24
11 9 13 12 17 14 15 15 15 14 10 9 3 10 15 18 19 17 16 14 17 20 22 20 19 24 25 24 26 24 23 20 23
9 8 10 15 17 14 14 15 15 12 10 6 7 8 17 16 17 13 17 15 17 18 20 22 26 25 25 25 25 23 20 21 22
13 12 11 16 17 15 15 15 15 12 9 7 5 13 14 15 16 12 15 17 16 18 20 21 24 23 23 22 21 20 21 21 21
13 14 11 13 15 12 14 15 14 12 9 7 10 12 11 11 15 11 19 18 19 20 21 23 22 22 22 20 19 19 20 21 20
12 11 13 12 11 11 12 12 12 15 11 3 16 15 15 14 14 10 16 18 19 24 23 22 21 20 20 19 19 19 19 18 21
13 11 11 14 15 13 11 8 8 9 7 15 17 14 14 14 14 12 14 18 22 24 23 20 20 19 19 18 19 19 19 19 18
10 10 10 12 10 18 11 7 6 5 9 13 17 14 14 14 14 13 10 20 21 23 20 18 18 19 19 18 20 19 17 18 20
10 8 5 7 13 14 7 8 9 5 9 6 13 15 13 13 14 13 13 18 19 21 20 17 17 17 19 20 19 16 20 19 18
12 7 7 8 8 10 6 5 3 4 5 4 5 12 14 13 12 13 14 13 13 21 20 19 17 19 19 17 15 18 18 18 15
15 11 12 17 8 6 4 3 4 4 4 5 5 7 9 11 11 10 14 13 14 16 20 21 17 16 16 14 16 17 16 15 14
12 12 15 16 7 4 4 5 3 3 4 7 6 5 8 11 8 7 11 13 14 16 17 16 16 15 14 12 15 16 14 14 13
11 9 13 15 9 8 7 4 7 3 6 4 5 5 5 5 6 7 8 8 10 11 15 15 17 14 12 14 15 14 14 12 11
14 9 8 11 9 11 9 8 4 3 6 4 4 3 3 3 2 5 5 4 4 7 14 14 18 14 13 11 13 13 11 11 10
16 13 11 8 8 10 11 10 8 8 4 12 4 3 4 3 2 2 4 4 3 3 5 14 14 17 12 10 11 11 11 10 9
17 16 13 8 5 9 10 9 6 8 8 4 1 1 6 4 3 2 3 5 5 5 3 10 16 14 11 9 9 10 10 8 8
15 16 14 6 5 7 11 10 8 9 6 4 3 2 1 4 3 3 3 0 2 8 8 7 13 13 13 11 9 9 8 8 7
Wind_Direction
129 125 117 130 125 125 122 117 110 105 102 103 121 98 29 24 86 84 84 92 91 87 82 90 80 81 78 78 76 74 73 73 76
129 127 121 128 131 130 126 120 114 111 109 116 115 54 342 316 86 88 87 87 95 93 89 88 86 76 76 71 73 77 81 84 81
131 137 131 132 133 113 121 115 118 117 114 122 107 2 353 91 88 97 95 90 91 94 95 88 92 86 87 89 92 89 87 82 76
140 144 139 141 130 115 111 116 121 120 124 130 125 32 22 103 111 98 96 102 98 105 106 98 96 100 101 96 94 87 82 80 77
143 151 146 151 126 129 123 126 126 128 140 159 81 39 75 96 87 100 106 105 105 95 101 100 101 96 91 92 88 84 83 82 80
148 167 156 142 133 137 134 133 131 138 147 141 90 59 92 95 99 107 108 112 110 95 95 97 100 96 90 85 87 84 82 82 80
169 141 149 145 140 141 139 140 143 142 150 153 130 96 101 100 102 117 119 114 115 112 102 107 99 98 95 88 88 89 90 88 87
126 135 156 143 143 142 144 160 166 155 174 180 151 116 121 103 95 109 122 119 117 118 112 102 98 96 95 97 95 92 91 92 90
136 148 155 149 149 152 173 183 203 156 183 139 92 80 54 105 90 104 123 129 122 121 112 106 102 97 98 99 97 97 97 92 91
140 167 165 166 166 159 201 205 129 143 147 99 94 80 65 74 102 109 134 125 129 121 113 113 111 109 106 106 105 103 95 88 86
152 161 164 185 171 158 208 152 131 125 113 101 108 96 80 68 70 97 111 135 130 121 120 116 115 115 114 117 106 99 97 97 87
145 135 126 155 133 142 155 119 117 79 90 87 109 108 89 75 69 79 89 129 131 122 118 120 118 121 121 112 104 101 97 89 83
150 139 131 140 133 140 134 125 99 97 88 81 59 101 94 81 74 89 98 115 123 121 126 124 125 118 116 112 110 106 97 91 84
156 150 146 149 137 123 124 99 115 109 93 74 56 69 98 86 79 76 86 99 112 115 123 122 122 123 122 118 118 109 99 95 92
161 156 149 151 136 132 124 129 114 114 115 89 60 47 55 94 79 68 81 96 108 116 112 114 121 126 126 135 127 117 108 105 100
169 168 158 157 155 149 148 124 122 119 116 91 64 37 40 71 108 93 81 61 71 121 125 114 108 95 112 135 132 124 117 109 98
178 172 168 168 160 153 154 142 134 125 158 135 107 107 5 358 75 128 113 108 93 87 140 133 123 113 103 109 132 131 127 118 105
180 170 167 175 170 165 157 156 151 162 204 176 141 138 177 138 300 151 175 157 132 86 90 149 130 135 123 108 109 136 140 132 117
177 167 166 178 161 161 155 159 154 161 180 208 242 108 138 163 156 240 189 173 164 171 140 125 123 131 132 139 120 124 139 144 135
174 164 162 169 164 156 161 164 156 175 176 167 151 133 115 136 139 166 209 122 181 161 170 150 129 139 136 136 137 138 142 153 155